Profile of Voice Seeker 73764

These are the public details of this voice seeker.

73764
Confidential (why?)
2011-05-26

28 projects

0 projects
30

No auditions/proposal received during the past six months
284 days ago
• A Voice123 Team member HAS NOT spoken over the phone to this voice-seeker about his/her projects, messages, or invitations.
• A Voice123 Team member HAS NOT communicated via email with this voice-seeker about his/her projects, messages, or invitations.
List of Projects Posted with Voice123's SmartCast Enabled:
ID Name Posted Deadline Auditions/
Proposals Received
% of Auditions/
Proposals
Opened
ZD3665840 A Car is an inseparable part of your life 2017-08-15 20:35:46 GMT 2017-08-23 16:00:00 GMT 1 100.00%
ZD1541402 NCC Animation Video 2016-11-08 22:19:21 GMT 2016-11-11 17:00:00 GMT 0 N/A
ZD1409655 AFCU Cash Back Visa Card 2016-10-10 21:15:17 GMT 2016-10-10 21:07:26 GMT 0 N/A
ZD1045964 AFCU 2016 Olympics 2016-07-21 21:21:49 GMT 2016-07-25 06:00:00 GMT 65 100.00%
ZD1041864 Putting the America in America First 2016-07-20 23:12:21 GMT 2016-07-22 16:00:00 GMT 0 N/A
ZD596474 Fall Football Visa 2015-08-11 22:48:09 GMT 2015-08-14 19:00:00 GMT 66 100.00%
ZD514487 ASW Fly Fishing and Finance 2015-06-04 20:54:58 GMT 2015-06-12 00:00:00 GMT 78 100.00%
ZD427417 AFCU Compass 2015 2015-05-12 00:27:42 GMT 2015-05-18 21:00:00 GMT 178 0.00%
ZD409045 Card Guard 2015-05-06 01:43:59 GMT 2015-05-08 19:00:00 GMT 127 100.00%
ZD337305 STAM Your Search Is Over Spring TV 2015-04-10 23:03:20 GMT 2015-05-06 00:00:00 GMT 49 100.00%
ZD328641 AFCU Member Stories 2015 2015-04-07 21:56:05 GMT 2015-04-10 00:00:00 GMT 114 100.00%
ZD252325 LHM Mr Generous KINETIC 2015-03-04 00:51:22 GMT 2015-03-04 20:00:00 GMT 36 100.00%
ZD155561 AFCU Low Rate Visa 2014-11-11 02:27:33 GMT 2014-11-11 22:00:00 GMT 98 100.00%
ZD132207 AFCU Mobile App 2014-06-17 02:18:26 GMT 2014-06-18 00:00:00 GMT 61 100.00%
ZD129898 AFCU Summer of Loans 2014-06-05 04:20:22 GMT 2014-06-06 00:00:00 GMT 72 100.00%
ZD92788 AFCU 75th Anniversary Film 2014-01-08 23:30:38 GMT 2014-01-11 01:00:00 GMT 62 96.77%
ZDLTK12138032058323X AFCU I Love Mobile Banking 2013-07-15 22:42:20 GMT 2013-07-24 21:00:00 GMT 0 N/A
ZDLTK12138031582X Hill Farms 2013-04-22 16:25:45 GMT 2013-04-24 00:00:00 GMT 0 N/A
ZDLTK53307766787X Geigerrig Pressure Video 2012-11-12 17:19:55 GMT 2012-11-15 19:00:00 GMT 0 N/A
ZDLTK53307536176X ABC Deals 2012-10-18 02:03:49 GMT 2012-10-19 21:00:00 GMT 0 N/A
ZDLTK53306213276X Summer of Giveaways AFCU 2012-07-09 16:08:15 GMT 2012-07-13 18:00:00 GMT 0 N/A
ZDLTK494039468204X Bus Stopper 2012-05-11 18:38:44 GMT 2012-05-14 23:00:00 GMT 0 N/A
ZDLTK494039362669X RMI Overview Script 2012-05-10 22:04:09 GMT 2012-05-15 21:00:00 GMT 0 N/A
ZDLTK494039363248X RMI Service Script 2012-05-10 23:47:49 GMT 2012-05-15 21:00:00 GMT 0 N/A
ZDLTK494025364770X MarketStar EcoSystems 2012-01-31 22:13:17 GMT 2012-02-02 21:00:00 GMT 0 N/A
ZDLTK494016610598X MarketStar Podcast 2011-09-22 23:35:43 GMT 2011-09-26 14:00:00 GMT 0 N/A
ZDLTK49405598790X Mobile Inspection 2011-05-26 19:11:08 GMT 2011-05-27 23:00:00 GMT 0 N/A

Note: Although Voice123 tries to establish the legitimacy of all voice seekers, you are responsible for conducting your own investigation into any and all claims made by prospective voice seekers, agents and/or clients. You assume all liability for use of any information you find through Voice123, or any of its publications.